Regional Weather Roundup
Issued by NWS

Home | Current Version | Previous Version | Graphics & Text | Print | Product List | Glossary Off
Versions: 1 2 3 4 5 6 7 8 9 10 11 12 13 14 15 16 17 18 19 20 21 22 23 24 25 26 27 28 29 30 31 32 33 34 35 36 37 38 39 40 41 42 43 44 45 46 47 48 49 50

000
ASUS43 KLMK 051510
RWRKY
KENTUCKY REGIONAL WEATHER ROUNDUP
NATIONAL WEATHER SERVICE LOUISVILLE KY
1100 AM EDT SAT SEP 05 2015

NOTE "FAIR" INDICATES FEW OR NO CLOUDS BELOW 12,000 FEET
WITH NO SIGNIFICANT WEATHER AND/OR OBSTRUCTIONS TO VISIBILITY.

KYZ001>023-026-027-061>063-070>075-051600-
WESTERN AND SOUTH CENTRAL KENTUCKY

CITY           SKY/WX    TMP DP  RH WIND       PRES   REMARKS
PADUCAH        SUNNY     85  71  63 E5        30.10S HX  90
HENDERSON      SUNNY     82  70  65 E5        30.11S
OWENSBORO      SUNNY     85  69  58 S7        30.13R
HOPKINSVILLE   SUNNY     83  70  66 E3        30.11S
BOWLING GREEN  SUNNY     84  70  62 VRB3      30.13R
GLASGOW        SUNNY     83  69  62 CALM      30.13S
$$

KYZ024-025-028>034-038-045-046-053-051600-
NORTH CENTRAL KENTUCKY

CITY           SKY/WX    TMP DP  RH WIND       PRES   REMARKS
LOUISVILLE/SDF MOSUNNY   82  66  58 CALM      30.14R
LOUISVILLE/LOU SUNNY     82  67  60 CALM      30.15S
FORT KNOX      SUNNY     81  67  63 NE3       30.14R
$$

KYZ035>037-039>044-047>052-055>060-089>105-051600-
NORTHEAST KENTUCKY

CITY           SKY/WX    TMP DP  RH WIND       PRES   REMARKS
LEXINGTON      SUNNY     84  66  54 E5        30.16R
COVINGTON      PTSUNNY   80  64  58 CALM      30.17R
FRANKFORT      SUNNY     81  66  60 CALM      30.15R
$$

KYZ054-064>069-076>088-106>120-051600-
SOUTHEAST KENTUCKY

CITY           SKY/WX    TMP DP  RH WIND       PRES   REMARKS
JACKSON        SUNNY     77  67  71 CALM      30.19R
LONDON         SUNNY     82  64  54 VRB3      30.18R
SOMERSET       SUNNY     81  66  61 CALM      30.17S
MIDDLESBORO    SUNNY     79  64  60 CALM      30.18S
MONTICELLO     SUNNY     82  70  67 CALM      30.18S
$$



USA.gov is the U.S. government's official web portal to all federal, state and local government web resources and services.